• In Deutschland
  • Länderverzeichnis
  • Für 7 Tage
  • Wassertemperatur
  • Satellitenkarten
  • Wetterkarte
  • Widgets
  • user-avatar
    Anmelden

    Stündliche Wetter Tbilissi

    Heute, 12 Dezember, Dienstag

    Zeit Temperatur Niederschläge Wind Luftdruck Luftfeuchtigkeit
    00:00 +3°C° 0 mm 2 m/S 708 mmHg 71%
    01:00 +3°C° 0 mm 1 m/S 708 mmHg 69%
    02:00 +3°C° 0 mm 1 m/S 708 mmHg 68%
    03:00 +3°C° 0 mm 1 m/S 708 mmHg 67%
    04:00 +3°C° 0 mm 1 m/S 708 mmHg 65%
    05:00 +3°C° 0 mm 1 m/S 708 mmHg 64%
    06:00 +3°C° 0 mm 1 m/S 708 mmHg 63%
    07:00 +4°C° 0 mm 1 m/S 708 mmHg 60%
    08:00 +4°C° 0 mm 1 m/S 708 mmHg 57%
    09:00 +5°C° 0 mm 1 m/S 708 mmHg 54%
    10:00 +7°C° 0 mm 1 m/S 708 mmHg 50%
    11:00 +8°C° 0 mm 1 m/S 708 mmHg 47%
    12:00 +9°C° 0 mm 1 m/S 707 mmHg 43%
    13:00 +9°C° 0 mm 1 m/S 707 mmHg 44%
    14:00 +10°C° 0 mm 1 m/S 707 mmHg 45%
    15:00 +9°C° 0 mm 0 m/S 707 mmHg 45%
    16:00 +7°C° 0 mm 0 m/S 707 mmHg 49%
    17:00 +7°C° 0 mm 1 m/S 707 mmHg 53%
    18:00 +6°C° 0 mm 1 m/S 707 mmHg 56%
    19:00 +6°C° 0 mm 1 m/S 707 mmHg 56%
    20:00 +5°C° 0 mm 1 m/S 707 mmHg 56%
    21:00 +5°C° 0 mm 1 m/S 707 mmHg 56%
    22:00 +5°C° 0 mm 1 m/S 707 mmHg 56%
    23:00 +5°C° 0 mm 1 m/S 707 mmHg 56%

    Morgen, 13 Dezember, Mittwoch

    Zeit Temperatur Niederschläge Wind Luftdruck Luftfeuchtigkeit
    00:00 +5°C° 0 mm 1 m/S 707 mmHg 56%
    01:00 +5°C° 0 mm 1 m/S 707 mmHg 55%
    02:00 +4°C° 0 mm 1 m/S 707 mmHg 55%
    03:00 +4°C° 0 mm 1 m/S 707 mmHg 55%
    04:00 +4°C° 0 mm 1 m/S 706 mmHg 55%
    05:00 +4°C° 0 mm 1 m/S 706 mmHg 55%
    06:00 +4°C° 0 mm 1 m/S 706 mmHg 54%
    07:00 +5°C° 0 mm 1 m/S 706 mmHg 52%
    08:00 +6°C° 0 mm 1 m/S 706 mmHg 49%
    09:00 +7°C° 0 mm 1 m/S 706 mmHg 46%
    10:00 +8°C° 0 mm 1 m/S 706 mmHg 43%
    11:00 +10°C° 0 mm 1 m/S 705 mmHg 40%
    12:00 +11°C° 0 mm 1 m/S 705 mmHg 37%
    13:00 +11°C° 0 mm 1 m/S 705 mmHg 38%
    14:00 +11°C° 0 mm 1 m/S 705 mmHg 40%
    15:00 +11°C° 0 mm 1 m/S 704 mmHg 41%
    16:00 +9°C° 0 mm 1 m/S 704 mmHg 45%
    17:00 +8°C° 0 mm 1 m/S 704 mmHg 49%
    18:00 +5°C° 0 mm 0 m/S 704 mmHg 54%
    19:00 +5°C° 0 mm 0 m/S 704 mmHg 55%
    20:00 +6°C° 0 mm 1 m/S 704 mmHg 56%
    21:00 +5°C° 0 mm 1 m/S 704 mmHg 57%
    22:00 +5°C° 0 mm 1 m/S 704 mmHg 58%
    23:00 +5°C° 0 mm 1 m/S 704 mmHg 59%

    übermorgen, 14 Dezember, Donnerstag

    Zeit Temperatur Niederschläge Wind Luftdruck Luftfeuchtigkeit
    00:00 +4°C° 0 mm 1 m/S 704 mmHg 60%
    01:00 +4°C° 0 mm 1 m/S 704 mmHg 61%
    02:00 +4°C° 0 mm 1 m/S 704 mmHg 63%
    03:00 +4°C° 0 mm 1 m/S 704 mmHg 64%
    04:00 +3°C° 0 mm 1 m/S 704 mmHg 65%
    05:00 +3°C° 0 mm 1 m/S 704 mmHg 66%
    06:00 +3°C° 0 mm 1 m/S 703 mmHg 67%
    07:00 +4°C° 0 mm 1 m/S 704 mmHg 64%
    08:00 +5°C° 0 mm 1 m/S 704 mmHg 62%
    09:00 +5°C° 0 mm 1 m/S 704 mmHg 60%
    10:00 +6°C° 0 mm 1 m/S 704 mmHg 57%
    11:00 +7°C° 0 mm 1 m/S 703 mmHg 55%
    12:00 +8°C° 0 mm 2 m/S 703 mmHg 52%
    13:00 +8°C° 0 mm 2 m/S 703 mmHg 53%
    14:00 +8°C° 0 mm 2 m/S 703 mmHg 54%
    15:00 +8°C° 0 mm 2 m/S 702 mmHg 55%
    16:00 +7°C° 0 mm 1 m/S 703 mmHg 62%
    17:00 +6°C° 0 mm 1 m/S 703 mmHg 70%
    18:00 +4°C° 0 mm 1 m/S 703 mmHg 77%
    19:00 +4°C° 0 mm 1 m/S 703 mmHg 79%
    20:00 +4°C° 0 mm 1 m/S 703 mmHg 81%
    21:00 +3°C° 0 mm 1 m/S 703 mmHg 84%
    22:00 +3°C° 0 mm 1 m/S 703 mmHg 84%
    23:00 +4°C° 0 mm 1 m/S 703 mmHg 85%

    15 Dezember, Freitag

    Zeit Temperatur Niederschläge Wind Luftdruck Luftfeuchtigkeit
    00:00 +4°C° 0 mm 1 m/S 703 mmHg 85%
    01:00 +4°C° 0 mm 1 m/S 702 mmHg 85%
    02:00 +4°C° 0 mm 1 m/S 702 mmHg 85%
    03:00 +3°C° 0 mm 1 m/S 702 mmHg 84%
    04:00 +3°C° 0 mm 1 m/S 702 mmHg 84%
    05:00 +3°C° 0 mm 1 m/S 702 mmHg 84%
    06:00 +3°C° 0 mm 1 m/S 702 mmHg 83%
    07:00 +3°C° 0 mm 1 m/S 702 mmHg 79%
    08:00 +4°C° 0 mm 1 m/S 702 mmHg 74%
    09:00 +5°C° 0 mm 1 m/S 703 mmHg 70%
    10:00 +6°C° 0 mm 1 m/S 702 mmHg 64%
    11:00 +8°C° 0 mm 1 m/S 702 mmHg 59%
    12:00 +9°C° 0 mm 1 m/S 702 mmHg 54%
    13:00 +9°C° 0 mm 1 m/S 702 mmHg 53%
    14:00 +9°C° 0 mm 1 m/S 702 mmHg 53%
    15:00 +9°C° 0 mm 1 m/S 702 mmHg 52%
    16:00 +7°C° 0 mm 0 m/S 703 mmHg 58%
    17:00 +6°C° 0 mm 0 m/S 703 mmHg 63%
    18:00 +4°C° 0 mm 0 m/S 703 mmHg 69%
    19:00 +4°C° 0 mm 0 m/S 704 mmHg 68%
    20:00 +4°C° 0 mm 0 m/S 704 mmHg 67%
    21:00 +5°C° 0 mm 1 m/S 704 mmHg 67%
    22:00 +4°C° 0 mm 1 m/S 704 mmHg 66%
    23:00 +4°C° 0 mm 1 m/S 704 mmHg 66%

    16 Dezember, Samstag

    Zeit Temperatur Niederschläge Wind Luftdruck Luftfeuchtigkeit
    00:00 +4°C° 0 mm 1 m/S 704 mmHg 65%
    01:00 +4°C° 0 mm 1 m/S 705 mmHg 64%
    02:00 +4°C° 0 mm 1 m/S 705 mmHg 64%
    03:00 +4°C° 0 mm 1 m/S 705 mmHg 63%
    04:00 +4°C° 0 mm 1 m/S 705 mmHg 61%
    05:00 +4°C° 0 mm 1 m/S 705 mmHg 60%
    06:00 +3°C° 0 mm 1 m/S 705 mmHg 59%
    07:00 +4°C° 0 mm 1 m/S 705 mmHg 55%
    08:00 +5°C° 0 mm 1 m/S 706 mmHg 52%
    09:00 +6°C° 0 mm 1 m/S 706 mmHg 48%
    10:00 +8°C° 0 mm 1 m/S 706 mmHg 44%
    11:00 +9°C° 0 mm 1 m/S 705 mmHg 41%
    12:00 +10°C° 0 mm 1 m/S 705 mmHg 37%
    13:00 +10°C° 0 mm 1 m/S 705 mmHg 38%
    14:00 +10°C° 0 mm 1 m/S 705 mmHg 39%
    15:00 +10°C° 0 mm 1 m/S 705 mmHg 41%
    16:00 +9°C° 0 mm 1 m/S 705 mmHg 46%
    17:00 +7°C° 0 mm 1 m/S 705 mmHg 52%
    18:00 +6°C° 0 mm 1 m/S 705 mmHg 57%
    19:00 +5°C° 0 mm 1 m/S 706 mmHg 59%
    20:00 +5°C° 0 mm 1 m/S 706 mmHg 61%
    21:00 +5°C° 0 mm 1 m/S 706 mmHg 62%
    22:00 +4°C° 0 mm 1 m/S 706 mmHg 64%
    23:00 +4°C° 0 mm 1 m/S 706 mmHg 66%

    17 Dezember, Sonntag

    Zeit Temperatur Niederschläge Wind Luftdruck Luftfeuchtigkeit
    00:00 +4°C° 0 mm 1 m/S 706 mmHg 68%
    01:00 +4°C° 0 mm 1 m/S 706 mmHg 69%
    02:00 +3°C° 0 mm 1 m/S 706 mmHg 70%
    03:00 +3°C° 0 mm 1 m/S 706 mmHg 71%
    04:00 +3°C° 0 mm 1 m/S 706 mmHg 71%
    05:00 +3°C° 0 mm 1 m/S 705 mmHg 71%
    06:00 +3°C° 0 mm 1 m/S 705 mmHg 71%
    07:00 +4°C° 0 mm 1 m/S 705 mmHg 68%
    08:00 +5°C° 0 mm 1 m/S 705 mmHg 64%
    09:00 +5°C° 0 mm 1 m/S 705 mmHg 61%
    10:00 +7°C° 0 mm 1 m/S 705 mmHg 55%
    11:00 +9°C° 0 mm 1 m/S 705 mmHg 49%
    12:00 +10°C° 0 mm 1 m/S 704 mmHg 44%
    13:00 +10°C° 0 mm 1 m/S 704 mmHg 44%
    14:00 +10°C° 0 mm 1 m/S 704 mmHg 45%
    15:00 +10°C° 0 mm 1 m/S 704 mmHg 45%
    16:00 +9°C° 0 mm 1 m/S 704 mmHg 51%
    17:00 +7°C° 0 mm 1 m/S 704 mmHg 57%
    18:00 +6°C° 0 mm 1 m/S 705 mmHg 62%
    19:00 +5°C° 0 mm 1 m/S 705 mmHg 64%
    20:00 +5°C° 0 mm 1 m/S 705 mmHg 65%
    21:00 +5°C° 0 mm 1 m/S 705 mmHg 67%
    22:00 +4°C° 0 mm 1 m/S 705 mmHg 67%
    23:00 +4°C° 0 mm 1 m/S 705 mmHg 68%
    Mehr zeigen